Terminal Aerodrome Forecast
Issued by NWS

Home | Current Version | Previous Version | Text Only | Print | Product List | Glossary On
Versions: 1 2 3 4 5 6 7 8 9 10 11 12 13 14 15 16 17 18 19 20 21 22
000
FTUS44 KMAF 250700 AAA
TAFPEQ
TAF AMD
KPEQ 250745Z 2508/2606 13006KT P6SM SCT250
      TEMPO 2508/2510 VRB20G35KT 4SM -TSRA BR BKN040CB
     FM251600 26012G22KT P6SM SCT250
     FM260100 24007KT P6SM SCT250=

USA.gov is the U.S. government's official web portal to all federal, state and local government web resources and services.